sat.trackr.live / text

‹ back to catalog

HULIANWANG DIGUI-93

NORAD 66001 · 2025-231G

PAYLOAD ACTIVE UNKNOWN

§ Identity

Operator
Country
PRC
Launch date
2025-10-16
Launch site
WSC
Launch vehicle
Mass (kg)
RCS (m²)

External: N2YO · Heavens-Above · Gunter

§ Orbital elements

Epoch: 2026-05-25T00:50:17.151072Z

Period
108.33 min
Inclination
50.0023°
Eccentricity
0.0000930
Mean motion
13.29327407 rev/d
Perigee alt
1,148.6 km
Apogee alt
1,150.0 km
Semi-major
7,527.4 km
B*
4.6009e-5
RAAN
258.4866°
Arg perigee
149.3891°
Mean anomaly
210.7035°
Rev number
2,981

§ Raw data

HULIANWANG DIGUI-931 66001U 25231G   26145.03492073 -.00000103  00000+0  46009-4 0  99992 66001  50.0023 258.4866 0000930 149.3891 210.7035 13.29327407 29817

JSON: /api/v1/satellites/66001 · /tle

For live sub-satellite position, see the globe view (requires WebGL).

§ Visibility from observer

Set your observer location to see the next 7 days of passes ≥ 10°. The values pass through the URL so the page stays shareable.

No JS? Fill the form by hand. The geolocation button needs JavaScript.